Location: Chervonnoye
(48.6000°N, 34.4000°E)
Time: 21:39:49
(UTC+00:00)

RS-44 - Pass Details

Date: 06 December 2022
Orbit: 1174 x 1511 km, 82.5° (Epoch: 01 February)

Event Time Altitude Azimuth Distance (km) Brightness Sun altitude
Exits shadow 03:02:02 23° 318° (NW) 2,732 ? -21.7°
Drops below altitude 10° 03:07:21 10° 355° (N) 3,665 ? -20.8°
Sets 03:11:08 0° 9° (N) 4,664 ? -20.2°
